FW4092 Weather Reports


time (UTC)temp
C
wind
direction
speed
KPH
gust
KPH
rain 1hr
cm
rain 24hr
cm
rain mn
cm
humidity
%
barometer
mb
20260831163445 15 139 1.6 6.4 0.00 0.00 0.00 44 1012.0
20260831162943 15 140 1.6 6.4 0.00 0.00 0.00 44 1012.0
20260831162445 15 149 1.6 4.8 0.00 0.00 0.00 44 1012.1
20260831161943 15 129 1.6 4.8 0.00 0.00 0.00 45 1012.1
20260831161437 14 146 1.6 4.8 0.00 0.00 0.00 46 1012.1
20260831160954 13 148 1.6 4.8 0.00 0.00 0.00 46 1012.1
20260831155938 13 146 1.6 6.4 0.00 0.00 0.00 47 1012.2
20260831155443 13 146 1.6 6.4 0.00 0.00 0.00 48 1012.3
20260831154938 12 148 0.0 8.0 0.00 0.00 0.00 50 1012.2
20260831154435 12 148 1.6 8.0 0.00 0.00 0.00 50 1012.2
20260831154206 11 147 1.6 8.0 0.00 0.00 0.00 52 1012.2
20260831153431 11 147 1.6 8.0 0.00 0.00 0.00 52 1012.2
20260831153216 10 148 1.6 4.8 0.00 0.00 0.00 54 1012.2
20260831153204 11 149 1.6 4.8 0.00 0.00 0.00 53 1012.2
20260831152213 10 148 1.6 8.0 0.00 0.00 0.00 55 1012.2
20260831151431 9 148 3.2 8.0 0.00 0.00 0.00 57 1012.1
20260831150929 8 149 3.2 8.0 0.00 0.00 0.00 58 1012.2
20260831150429 8 148 3.2 8.0 0.00 0.00 0.00 59 1012.2
20260831150216 8 146 4.8 12.9 0.00 0.00 0.00 60 1012.1
20260831150212 7 138 4.8 12.9 0.00 0.00 0.00 61 1012.2
20260831145224 7 141 3.2 9.7 0.00 0.00 0.00 62 1012.2
20260831144154 7 144 3.2 11.3 0.00 0.00 0.00 62 1012.1
20260831143417 6 140 4.8 8.0 0.00 0.00 0.00 63 1012.0
20260831142912 6 141 4.8 11.3 0.00 0.00 0.00 63 1012.0
20260831142404 6 142 4.8 11.3 0.00 0.00 0.00 63 1012.0
20260831141901 6 155 3.2 9.7 0.00 0.00 0.00 63 1012.0
20260831141400 6 159 1.6 8.0 0.00 0.00 0.00 65 1011.9
20260831140900 6 147 1.6 8.0 0.00 0.00 0.00 66 1012.0
20260831140400 5 148 3.2 8.0 0.00 0.00 0.00 66 1012.0
20260831135859 5 150 3.2 8.0 0.00 0.00 0.00 66 1012.0
20260831135359 5 151 4.8 11.3 0.00 0.00 0.00 65 1012.0
20260831135132 6 140 4.8 11.3 0.00 0.00 0.00 65 1012.0
20260831134400 6 138 3.2 8.0 0.00 0.00 0.00 64 1012.1
20260831133900 6 143 4.8 8.0 0.00 0.00 0.00 63 1012.1
20260831133357 6 151 3.2 8.0 0.00 0.00 0.00 63 1012.0
20260831133128 6 149 3.2 9.7 0.00 0.00 0.00 62 1011.9
20260831132400 6 150 3.2 9.7 0.00 0.00 0.00 61 1011.9
20260831131902 6 148 3.2 6.4 0.00 0.00 0.00 61 1011.9
20260831131358 6 144 3.2 6.4 0.00 0.00 0.00 62 1012.0
20260831130857 6 148 1.6 4.8 0.00 0.00 0.00 62 1012.0
20260831130358 6 144 0.0 4.8 0.00 0.00 0.00 63 1012.0
20260831125857 6 143 1.6 4.8 0.00 0.00 0.00 63 1012.0
20260831125354 6 143 3.2 4.8 0.00 0.00 0.00 63 1012.0
20260831125116 6 143 1.6 4.8 0.00 0.00 0.00 63 1012.1
20260831124848 6 143 1.6 4.8 0.00 0.00 0.00 63 1012.1
20260831124339 6 143 1.6 4.8 0.00 0.00 0.00 62 1012.1
20260831123833 6 143 3.2 8.0 0.00 0.00 0.00 62 1012.1
20260831123331 6 143 3.2 8.0 0.00 0.00 0.00 62 1012.2
20260831122831 6 141 3.2 6.4 0.00 0.00 0.00 62 1012.2
20260831122329 6 144 3.2 11.3 0.00 0.00 0.00 62 1012.2
20260831122110 7 144 4.8 11.3 0.00 0.00 0.00 61 1012.3
20260831121332 7 138 4.8 8.0 0.00 0.00 0.00 62 1012.4
20260831121110 7 142 4.8 8.0 0.00 0.00 0.00 63 1012.3
20260831120330 7 140 4.8 8.0 0.00 0.00 0.00 63 1012.3
20260831115829 7 136 3.2 8.0 0.00 0.00 0.00 62 1012.3
20260831115329 7 166 3.2 8.0 0.00 0.00 0.00 61 1012.4
20260831114829 7 208 1.6 4.8 0.00 0.00 0.00 60 1012.4
20260831114330 7 217 1.6 4.8 0.00 0.00 0.00 60 1012.4
20260831113829 7 225 0.0 4.8 0.00 0.00 0.00 59 1012.3
20260831113330 8 226 0.0 3.2 0.00 0.00 0.00 58 1012.4
20260831112823 8 226 0.0 3.2 0.00 0.00 0.00 57 1012.4
20260831112310 8 227 0.0 3.2 0.00 0.00 0.00 56 1012.4
20260831112140 8 227 0.0 3.2 0.00 0.00 0.00 54 1012.6
20260831111309 9 242 0.0 3.2 0.00 0.00 0.00 52 1012.7
20260831110551 9 248 0.0 0.0 0.00 0.00 0.00 53 1012.7
20260831105809 9 248 0.0 1.6 0.00 0.00 0.00 53 1012.7
20260831105544 9 248 0.0 1.6 0.00 0.00 0.00 53 1012.7
20260831104808 9 248 0.0 1.6 0.00 0.00 0.00 53 1012.6
20260831104309 9 265 0.0 1.6 0.00 0.00 0.00 54 1012.6
20260831103808 9 265 0.0 1.6 0.00 0.00 0.00 54 1012.6
20260831103310 9 272 0.0 1.6 0.00 0.00 0.00 55 1012.6
20260831102807 8 274 0.0 0.0 0.00 0.00 0.00 55 1012.6
20260831102306 8 274 0.0 0.0 0.00 0.00 0.00 55 1012.6
20260831101804 9 275 0.0 0.0 0.00 0.00 0.00 54 1012.6
20260831101538 9 275 0.0 3.2 0.00 0.00 0.00 53 1012.6
20260831101049 9 275 0.0 3.2 0.00 0.00 0.00 53 1012.6
20260831100303 9 294 0.0 1.6 0.00 0.00 0.00 53 1012.6
20260831095803 9 294 0.0 0.0 0.00 0.00 0.00 53 1012.7
20260831095311 9 294 0.0 0.0 0.00 0.00 0.00 53 1012.7
20260831094807 9 294 0.0 0.0 0.00 0.00 0.00 54 1012.7
20260831094301 10 294 0.0 0.0 0.00 0.00 0.00 54 1012.7
20260831093759 10 294 0.0 0.0 0.00 0.00 0.00 56 1012.7
20260831093256 10 294 0.0 0.0 0.00 0.00 0.00 55 1012.7
20260831092757 11 294 0.0 0.0 0.00 0.00 0.00 55 1012.8
20260831092255 11 294 0.0 0.0 0.00 0.00 0.00 54 1012.8
20260831091811 12 294 0.0 0.0 0.00 0.00 0.00 55 1012.9
20260831091804 11 294 0.0 0.0 0.00 0.00 0.00 54 1012.8
20260831090742 12 294 0.0 0.0 0.00 0.00 0.00 54 1013.0
20260831090236 12 294 0.0 0.0 0.00 0.00 0.00 54 1012.9
20260831085732 12 294 0.0 0.0 0.00 0.00 0.00 53 1013.0
20260831085240 12 294 0.0 0.0 0.00 0.00 0.00 52 1013.0
20260831085235 12 294 0.0 0.0 0.00 0.00 0.00 52 1012.9
20260831084212 12 294 0.0 0.0 0.00 0.00 0.00 52 1013.1
20260831083705 12 294 0.0 0.0 0.00 0.00 0.00 51 1013.1
20260831083159 12 294 0.0 0.0 0.00 0.00 0.00 51 1013.1
20260831082656 12 294 0.0 0.0 0.00 0.00 0.00 50 1013.1
20260831082150 12 294 0.0 0.0 0.00 0.00 0.00 50 1013.0
20260831081642 12 294 0.0 0.0 0.00 0.00 0.00 50 1013.1
20260831081136 12 294 0.0 0.0 0.00 0.00 0.00 49 1013.1
20260831080630 13 294 0.0 0.0 0.00 0.00 0.00 49 1013.2
20260831080124 13 294 0.0 0.0 0.00 0.00 0.00 48 1013.2
20260831075618 13 294 0.0 0.0 0.00 0.00 0.00 47 1013.2
20260831075112 13 294 0.0 0.0 0.00 0.00 0.00 47 1013.3
20260831074606 13 294 0.0 1.6 0.00 0.00 0.00 47 1013.2
20260831074334 13 294 0.0 1.6 0.00 0.00 0.00 47 1013.3
20260831073554 13 294 0.0 3.2 0.00 0.00 0.00 47 1013.2
20260831073319 13 294 0.0 3.2 0.00 0.00 0.00 47 1013.2
20260831073053 13 294 0.0 3.2 0.00 0.00 0.00 47 1013.2
20260831072547 13 294 0.0 3.2 0.00 0.00 0.00 47 1013.3
20260831072036 14 294 0.0 3.2 0.00 0.00 0.00 47 1013.2
20260831071530 14 294 0.0 1.6 0.00 0.00 0.00 46 1013.3
20260831071024 14 294 0.0 3.2 0.00 0.00 0.00 46 1013.4
20260831070521 14 294 0.0 3.2 0.00 0.00 0.00 45 1013.4
20260831070015 15 294 0.0 3.2 0.00 0.00 0.00 45 1013.4
20260831065510 15 294 0.0 3.2 0.00 0.00 0.00 45 1013.4
20260831065505 15 294 1.6 6.4 0.00 0.00 0.00 45 1013.3
20260831064456 15 297 1.6 6.4 0.00 0.00 0.00 46 1013.4
20260831063953 15 301 1.6 6.4 0.00 0.00 0.00 46 1013.4
20260831063444 15 292 1.6 6.4 0.00 0.00 0.00 46 1013.4
20260831062939 15 284 1.6 9.7 0.00 0.00 0.00 46 1013.4
20260831062432 16 279 3.2 9.7 0.00 0.00 0.00 46 1013.4
20260831061926 16 291 3.2 6.4 0.00 0.00 0.00 46 1013.4
20260831061420 16 294 3.2 6.4 0.00 0.00 0.00 46 1013.4
20260831060914 15 282 3.2 6.4 0.00 0.00 0.00 45 1013.4
20260831060408 15 280 3.2 8.0 0.00 0.00 0.00 46 1013.4
20260831055908 15 293 3.2 8.0 0.00 0.00 0.00 46 1013.3
20260831055408 15 299 3.2 4.8 0.00 0.00 0.00 45 1013.4
20260831054911 15 294 1.6 6.4 0.00 0.00 0.00 44 1013.4
20260831054652 15 298 1.6 6.4 0.00 0.00 0.00 44 1013.4
20260831053908 15 310 1.6 4.8 0.00 0.00 0.00 43 1013.5
20260831053644 15 315 1.6 4.8 0.00 0.00 0.00 43 1013.5
20260831052907 15 315 1.6 4.8 0.00 0.00 0.00 42 1013.5
20260831052408 15 318 1.6 4.8 0.00 0.00 0.00 41 1013.5
20260831051908 15 324 1.6 4.8 0.00 0.00 0.00 40 1013.5
20260831051408 16 336 1.6 4.8 0.00 0.00 0.00 39 1013.5
20260831050942 16 0 0.0 3.2 0.00 0.00 0.00 37 1013.5
20260831050908 16 345 1.6 4.8 0.00 0.00 0.00 38 1013.4
20260831050731 16 0 0.0 4.8 0.00 0.00 0.00 37 1013.5
20260831050718 16 0 0.0 3.2 0.00 0.00 0.00 37 1013.5
20260831045410 16 0 0.0 4.8 0.00 0.00 0.00 37 1013.4
20260831045151 17 5 0.0 4.8 0.00 0.00 0.00 37 1013.4
20260831044408 17 5 0.0 4.8 0.00 0.00 0.00 37 1013.4
20260831044155 17 12 0.0 3.2 0.00 0.00 0.00 36 1013.4
20260831043411 17 12 0.0 1.6 0.00 0.00 0.00 36 1013.4
20260831042905 17 12 0.0 1.6 0.00 0.00 0.00 35 1013.4
20260831042404 17 12 0.0 1.6 0.00 0.00 0.00 35 1013.4
20260831042129 17 13 0.0 1.6 0.00 0.00 0.00 34 1013.3
20260831041623 17 13 0.0 1.6 0.00 0.00 0.00 34 1013.3
20260831041106 18 13 0.0 1.6 0.00 0.00 0.00 34 1013.3
20260831040855 18 13 0.0 1.6 0.00 0.00 0.00 34 1013.3
20260831040341 18 13 0.0 1.6 0.00 0.00 0.00 33 1013.3
20260831035839 18 13 0.0 0.0 0.00 0.00 0.00 33 1013.3
20260831035833 18 13 0.0 0.0 0.00 0.00 0.00 33 1013.3
20260831034821 18 13 0.0 1.6 0.00 0.00 0.00 32 1013.2
20260831034316 18 13 0.0 1.6 0.00 0.00 0.00 32 1013.2
20260831033807 19 13 0.0 1.6 0.00 0.00 0.00 32 1013.2
20260831033302 19 13 0.0 1.6 0.00 0.00 0.00 31 1013.0
20260831032801 20 13 0.0 1.6 0.00 0.00 0.00 30 1013.0
20260831032258 20 13 0.0 3.2 0.00 0.00 0.00 29 1013.0
20260831032252 20 13 0.0 1.6 0.00 0.00 0.00 30 1013.0
20260831031241 20 13 0.0 3.2 0.00 0.00 0.00 29 1012.9
20260831030732 21 13 0.0 3.2 0.00 0.00 0.00 28 1012.9
20260831030225 21 13 1.6 8.0 0.00 0.00 0.00 28 1012.9
20260831030154 21 13 1.6 8.0 0.00 0.00 0.00 28 1012.9
20260831024941 22 9 1.6 8.0 0.00 0.00 0.00 26 1012.7
20260831024426 22 5 1.6 9.7 0.00 0.00 0.00 25 1012.7
20260831023703 22 5 1.6 9.7 0.00 0.00 0.00 24 1012.7
20260831023425 23 41 3.2 9.7 0.00 0.00 0.00 23 1012.7
20260831022906 23 0 1.6 9.7 0.00 0.00 0.00 22 1012.7
20260831022653 23 0 1.6 9.7 0.00 0.00 0.00 22 1012.7
20260831022140 23 44 3.2 9.7 0.00 0.00 0.00 22 1012.7
20260831021632 24 52 3.2 11.3 0.00 0.00 0.00 21 1012.8
20260831021130 24 5 3.2 12.9 0.00 0.00 0.00 21 1012.8
20260831020859 25 19 3.2 12.9 0.00 0.00 0.00 21 1012.7
20260831020115 25 24 3.2 8.0 0.00 0.00 0.00 20 1012.8
20260831015610 25 33 3.2 11.3 0.00 0.00 0.00 19 1012.8
20260831015104 25 53 3.2 9.7 0.00 0.00 0.00 19 1012.7
20260831014600 25 30 3.2 12.9 0.00 0.00 0.00 18 1012.7
20260831014057 26 5 3.2 12.9 0.00 0.00 0.00 19 1012.8
20260831013551 26 33 3.2 11.3 0.00 0.00 0.00 19 1012.8
20260831013038 26 36 3.2 11.3 0.00 0.00 0.00 18 1012.7
20260831012534 26 42 3.2 8.0 0.00 0.00 0.00 18 1012.6
20260831012031 26 38 4.8 14.5 0.00 0.00 0.00 17 1012.6
20260831011517 26 0 4.8 14.5 0.00 0.00 0.00 16 1012.7
20260831011016 26 0 3.2 9.7 0.00 0.00 0.00 16 1012.8
20260831010510 26 37 3.2 8.0 0.00 0.00 0.00 16 1012.9
20260831010237 26 52 4.8 12.9 0.00 0.00 0.00 16 1012.9
20260831005458 26 49 3.2 12.9 0.00 0.00 0.00 15 1012.9
20260831005043 27 41 3.2 8.0 0.00 0.00 0.00 16 1012.9
20260831004810 27 46 3.2 11.3 0.00 0.00 0.00 16 1012.9
20260831003433 26 80 3.2 8.0 0.00 0.00 0.00 15 1012.8
20260831003207 26 74 3.2 9.7 0.00 0.00 0.00 15 1013.0
20260831002427 26 78 1.6 9.7 0.00 0.00 0.00 15 1013.0
20260831001925 26 275 1.6 4.8 0.00 0.00 0.00 14 1013.0
20260831001425 26 259 3.2 6.4 0.00 0.00 0.00 13 1012.9
20260831000924 26 111 3.2 6.4 0.00 0.00 0.00 13 1013.0
20260831000425 26 84 3.2 9.7 0.00 0.00 0.00 13 1012.9
20260830235928 26 75 3.2 9.7 0.00 0.00 0.00 14 1013.0
20260830235425 26 91 3.2 8.0 0.00 0.00 0.00 14 1013.0
20260830234925 26 5 3.2 8.0 0.00 0.00 0.00 12 1013.0
20260830234713 26 323 3.2 9.7 0.00 0.00 0.00 12 1013.1
20260830233925 26 325 3.2 9.7 0.00 0.00 0.00 13 1013.2
20260830233425 26 96 1.6 9.7 0.00 0.00 0.00 12 1013.3
20260830232925 26 96 3.2 11.3 0.00 0.00 0.00 12 1013.4
20260830232425 26 80 4.8 14.5 0.00 0.00 0.00 11 1013.4
20260830231927 26 125 3.2 14.5 0.00 0.00 0.00 13 1013.5
20260830231425 26 46 3.2 12.9 0.00 0.00 0.00 16 1013.6
20260830230925 26 26 3.2 11.3 0.00 0.00 0.00 16 1013.5
20260830230424 26 60 3.2 11.3 0.00 0.00 0.00 18 1013.6
20260830230204 26 148 3.2 11.3 0.00 0.00 0.00 19 1013.8
20260830225416 25 68 3.2 11.3 0.00 0.00 0.00 20 1013.8
20260830224911 25 109 3.2 9.7 0.00 0.00 0.00 20 1013.8
20260830224404 25 14 1.6 11.3 0.00 0.00 0.00 21 1013.9
20260830223900 25 19 3.2 11.3 0.00 0.00 0.00 22 1014.0
20260830223352 25 59 4.8 11.3 0.00 0.00 0.00 22 1014.1
20260830222847 25 130 4.8 11.3 0.00 0.00 0.00 22 1014.2
20260830222340 25 132 3.2 11.3 0.00 0.00 0.00 22 1014.2
20260830221834 25 104 3.2 11.3 0.00 0.00 0.00 23 1014.2
20260830221330 25 99 3.2 9.7 0.00 0.00 0.00 24 1014.2
20260830220824 24 92 1.6 9.7 0.00 0.00 0.00 24 1014.3
20260830220316 24 89 1.6 8.0 0.00 0.00 0.00 24 1014.4
20260830220054 23 82 3.2 9.7 0.00 0.00 0.00 25 1014.4
20260830215305 23 86 3.2 9.7 0.00 0.00 0.00 25 1014.5
20260830214757 23 104 4.8 12.9 0.00 0.00 0.00 26 1014.5
20260830214253 23 335 4.8 12.9 0.00 0.00 0.00 26 1014.6
20260830213744 23 341 3.2 11.3 0.00 0.00 0.00 26 1014.7
20260830213241 23 50 1.6 6.4 0.00 0.00 0.00 26 1014.8
20260830212732 23 90 3.2 9.7 0.00 0.00 0.00 27 1015.0
20260830212226 23 40 4.8 12.9 0.00 0.00 0.00 27 1015.1
20260830211722 23 26 3.2 16.1 0.00 0.00 0.00 27 1015.2
20260830211214 23 75 3.2 16.1 0.00 0.00 0.00 28 1015.2
20260830210708 23 130 3.2 9.7 0.00 0.00 0.00 27 1015.2
20260830210202 23 124 3.2 9.7 0.00 0.00 0.00 27 1015.3
20260830205656 23 143 3.2 11.3 0.00 0.00 0.00 27 1015.3
20260830205432 23 130 3.2 11.3 0.00 0.00 0.00 28 1015.3
20260830204643 22 182 3.2 8.0 0.00 0.00 0.00 28 1015.4
20260830204138 22 121 3.2 12.9 0.00 0.00 0.00 28 1015.5
20260830203633 22 114 3.2 12.9 0.00 0.00 0.00 29 1015.6
20260830203126 22 202 3.2 8.0 0.00 0.00 0.00 30 1015.5
20260830202620 22 110 3.2 9.7 0.00 0.00 0.00 30 1015.5
20260830202117 21 70 3.2 9.7 0.00 0.00 0.00 34 1015.6
20260830201608 21 342 3.2 9.7 0.00 0.00 0.00 32 1015.7
20260830201102 21 198 3.2 9.7 0.00 0.00 0.00 32 1015.7
20260830200556 21 161 3.2 9.7 0.00 0.00 0.00 32 1015.6
20260830200050 21 163 3.2 8.0 0.00 0.00 0.00 33 1015.7
20260830195544 21 116 1.6 12.9 0.00 0.00 0.00 34 1015.7
20260830195044 21 177 1.6 12.9 0.00 0.00 0.00 35 1015.8
20260830194532 20 142 1.6 12.9 0.00 0.00 0.00 34 1015.9
20260830194028 20 130 3.2 12.9 0.00 0.00 0.00 34 1016.0
20260830193523 20 134 3.2 12.9 0.00 0.00 0.00 35 1016.0
20260830193051 21 101 1.6 11.3 0.00 0.00 0.00 35 1016.3
20260830193032 21 142 1.6 11.3 0.00 0.00 0.00 34 1016.1
20260830192015 20 92 3.2 12.9 0.00 0.00 0.00 37 1016.4
20260830191512 20 105 3.2 12.9 0.00 0.00 0.00 37 1016.4
20260830191022 20 114 3.2 11.3 0.00 0.00 0.00 38 1016.4
20260830190513 20 320 3.2 11.3 0.00 0.00 0.00 37 1016.4
20260830190012 20 88 3.2 11.3 0.00 0.00 0.00 37 1016.6
20260830185512 20 140 3.2 12.9 0.00 0.00 0.00 37 1016.6
20260830185014 20 146 4.8 12.9 0.00 0.00 0.00 37 1016.7
20260830184510 19 101 3.2 11.3 0.00 0.00 0.00 39 1016.6
20260830184014 19 109 3.2 9.7 0.00 0.00 0.00 41 1016.6
20260830183758 18 147 3.2 11.3 0.00 0.00 0.00 40 1016.6
20260830183010 18 105 4.8 11.3 0.00 0.00 0.00 41 1016.6
20260830182759 18 93 4.8 12.9 0.00 0.00 0.00 42 1016.7
20260830182014 18 190 3.2 14.5 0.00 0.00 0.00 43 1016.7
20260830181512 18 104 3.2 16.1 0.00 0.00 0.00 44 1016.7
20260830181015 18 90 4.8 16.1 0.00 0.00 0.00 44 1016.7
20260830180504 18 137 3.2 12.9 0.00 0.00 0.00 44 1016.8
20260830180243 17 118 3.2 12.9 0.00 0.00 0.00 45 1016.8
20260830175506 17 94 3.2 9.7 0.00 0.00 0.00 46 1016.9
20260830175004 17 190 1.6 8.0 0.00 0.00 0.00 47 1017.0
20260830174503 16 166 1.6 9.7 0.00 0.00 0.00 48 1017.0
20260830174004 16 142 3.2 9.7 0.00 0.00 0.00 49 1017.0
20260830173745 16 175 3.2 16.1 0.00 0.00 0.00 49 1017.1
20260830173009 16 165 3.2 9.7 0.00 0.00 0.00 50 1017.1
20260830173004 16 196 3.2 16.1 0.00 0.00 0.00 49 1017.0
20260830172003 15 113 3.2 12.9 0.00 0.00 0.00 51 1017.0
20260830171504 15 113 3.2 12.9 0.00 0.00 0.00 52 1017.0
20260830171003 15 170 1.6 11.3 0.00 0.00 0.00 53 1017.1
20260830170540 14 176 3.2 11.3 0.00 0.00 0.00 54 1017.1
20260830170520 14 114 3.2 8.0 0.00 0.00 0.00 54 1017.1
20260830165514 14 184 3.2 11.3 0.00 0.00 0.00 54 1017.3
20260830165005 14 131 3.2 9.7 0.00 0.00 0.00 55 1017.2
20260830164501 13 144 3.2 9.7 0.00 0.00 0.00 56 1017.2
20260830163959 13 147 3.2 11.3 0.00 0.00 0.00 58 1017.3